HS8AFA Weather Reports


Display with metric or nautical units.
time (UTC)temp
F
wind
direction
speed
MPH
gust
MPH
rain 1hr
in
rain 24hr
in
rain mn
in
humidity
%
barometer
mb
20260505003021 82 275 3.0 42.0 0.00 0.00 0.00 100 1011.0
20260505002017 82 269 3.0 42.0 0.00 0.00 0.00 100 1010.7
20260505001017 82 272 3.0 46.0 0.00 0.00 0.00 100 1010.6
20260505000039 82 266 3.0 47.0 0.00 0.00 0.00 100 1010.5
20260504235018 81 258 2.0 16.0 0.00 0.00 0.00 100 1010.4
20260504234019 81 267 2.0 39.0 0.00 0.00 0.00 100 1010.4
20260504233020 81 262 3.0 43.0 0.00 0.00 0.00 100 1010.4
20260504232015 82 266 2.0 41.0 0.00 0.00 0.00 100 1010.4
20260504231037 82 264 3.0 45.0 0.00 0.00 0.00 100 1010.3
20260504230017 81 268 2.0 35.0 0.00 0.00 0.00 100 1010.2
20260504225018 82 274 2.0 41.0 0.00 0.00 0.00 100 1010.1
20260504224019 81 304 3.0 43.0 0.00 0.00 0.00 100 1009.9
20260504223021 82 329 3.0 45.0 0.00 0.00 0.00 100 1009.8
20260504222016 82 344 2.0 40.0 0.00 0.00 0.00 100 1009.7
20260504221039 81 317 2.0 17.0 0.00 0.00 0.00 100 1009.6
20260504215038 82 333 3.0 45.0 0.00 0.00 0.00 100 1009.4
20260504214018 82 329 3.0 47.0 0.00 0.00 0.00 100 1009.5
20260504213020 82 308 3.0 43.0 0.00 0.00 0.00 100 1009.6
20260504212040 82 273 3.0 43.0 0.00 0.00 0.00 100 1009.5
20260504211037 82 277 3.0 44.0 0.00 0.00 0.00 100 1009.4
20260504210017 82 295 3.0 44.0 0.00 0.00 0.00 100 1009.5
20260504205018 82 273 2.0 41.0 0.00 0.00 0.00 100 1009.6
20260504204018 82 262 2.0 38.0 0.00 0.00 0.00 100 1009.7
20260504203020 82 267 3.0 47.0 0.00 0.00 0.00 100 1009.7
20260504202021 82 258 3.0 42.0 0.00 0.00 0.00 100 1009.7
20260504201016 82 248 3.0 45.0 0.00 0.00 0.00 100 1009.8
20260504200017 83 253 2.0 34.0 0.00 0.00 0.00 100 1009.9
20260504195018 83 254 2.0 42.0 0.00 0.00 0.00 100 1009.9
20260504194018 83 292 3.0 43.0 0.00 0.00 0.00 100 1010.0
20260504193019 83 345 2.0 41.0 0.00 0.00 0.00 100 1010.2
20260504192020 83 349 2.0 42.0 0.00 0.00 0.00 100 1010.3
20260504191037 83 354 2.0 41.0 0.00 0.00 0.00 100 1010.3
20260504190017 83 348 3.0 42.0 0.00 0.00 0.00 100 1010.3
20260504185017 83 353 3.0 44.0 0.00 0.00 0.00 100 1010.4
20260504184019 83 346 3.0 43.0 0.00 0.00 0.00 100 1010.6
20260504183040 83 327 2.0 41.0 0.00 0.00 0.00 100 1010.8
20260504182020 83 342 3.0 44.0 0.00 0.00 0.00 100 1010.8
20260504181016 84 343 3.0 43.0 0.00 0.00 0.00 100 1010.9
20260504180017 84 342 2.0 40.0 0.00 0.00 0.00 100 1011.0
20260504175018 84 344 2.0 40.0 0.00 0.00 0.00 100 1011.2
20260504174019 84 346 3.0 42.0 0.00 0.00 0.00 100 1011.5
20260504173019 84 343 2.0 38.0 0.00 0.00 0.00 100 1011.6
20260504172101 84 340 2.0 36.0 0.00 0.00 0.00 100 1011.7
20260504171016 84 328 2.0 18.0 0.00 0.00 0.00 100 1011.8
20260504151022 85 252 3.0 43.0 0.00 0.00 0.00 100 1011.3
20260504141020 87 329 3.0 43.0 0.00 0.00 0.00 100 1010.5
20260504081040 92 318 2.0 40.0 0.00 0.00 0.00 100 1008.6
20260504050016 94 306 3.0 46.0 0.00 0.00 0.00 99 1011.6
20260504045017 94 327 2.0 34.0 0.00 0.00 0.00 100 1011.7
20260504044037 93 318 2.0 41.0 0.00 0.00 0.00 100 1011.8
20260504043018 93 307 2.0 27.0 0.00 0.00 0.00 100 1011.9
20260504042020 93 308 2.0 24.0 0.00 0.00 0.00 100 1012.1
20260504041020 92 312 3.0 44.0 0.00 0.00 0.00 100 1012.1
20260504040016 91 324 3.0 44.0 0.00 0.00 0.00 100 1012.3
20260504035016 91 318 3.0 44.0 0.00 0.00 0.00 100 1012.4
20260504034017 91 309 3.0 43.0 0.00 0.00 0.00 100 1012.5
20260504033039 91 308 3.0 48.0 0.00 0.00 0.00 100 1012.6
20260504032019 91 313 2.0 41.0 0.00 0.00 0.00 100 1012.6
20260504031020 91 328 3.0 45.0 0.00 0.00 0.00 100 1012.7
20260504030016 90 309 3.0 44.0 0.00 0.00 0.00 100 1012.7
20260504025016 90 313 3.0 43.0 0.00 0.00 0.00 100 1012.6
20260504024018 89 312 3.0 42.0 0.00 0.00 0.00 100 1012.6
20260504023019 89 325 3.0 42.0 0.00 0.00 0.00 100 1012.5
20260504022019 89 311 2.0 38.0 0.00 0.00 0.00 100 1012.4
20260504021019 88 314 3.0 44.0 0.00 0.00 0.00 100 1012.4
20260504020016 87 333 3.0 43.0 0.00 0.00 0.00 100 1012.3
20260504015016 87 321 3.0 43.0 0.00 0.00 0.00 100 1012.2
20260504014017 86 313 3.0 43.0 0.00 0.00 0.00 100 1012.1
20260504013018 85 319 2.0 33.0 0.00 0.00 0.00 100 1011.9
20260504012019 84 322 2.0 38.0 0.00 0.00 0.00 100 1011.8
20260504011020 84 306 2.0 41.0 0.00 0.00 0.00 100 1011.6
20260504010016 83 326 2.0 42.0 0.00 0.00 0.00 100 1011.5
20260504005016 83 322 2.0 39.0 0.00 0.00 0.00 100 1011.3
20260504004017 82 307 2.0 26.0 0.00 0.00 0.00 100 1011.2